GSAT0207 (GALILEO 15) (41859 NORAD) Tracking and Keplerian Element Data

This shows tracking and keplerian element data for the satellite.

Feedback or suggestion? Click here.




ElementValue
Catalog41859
NameGSAT0207 (GALILEO 15)
Epoch Orbit2854
Epoch Day170.64398694
Epoch Year2021
RAAN151.6494
Inclination54.7236
Eccentricity0.0005783
Argument of Perigee295.9748
Mean Anonmoly63.9583
Mean Motion1.70476174
Decay Rate8.1E-07
L11 41859U 16069A 21170.64398694 .00000081 00000-0 10000-3 0 9992
L22 41859 54.7236 151.6494 0005783 295.9748 63.9583 1.70476174 28543

Live tracking and technical data element details for GSAT0207 (GALILEO 15) (NORAD 41859). GSAT0207 (GALILEO 15) can be tracked NOW for your location showing map with azimuth and elevation plus other details from your city location.

Track the satellite on the map from your city or location and see movement details for azimuth, elevation, latitude, longitude, range, height, and movement on the map or in text.







IsCatalogInMostPopularTable: catalog: 41859, numindb: 578
Update: records affected: 1



GetName: 41859 GSAT0207 (GALILEO 15)

Hit Count: updated at: Tue, 22 Jun 2021 02:35:03 GMT